Location: Bacharowice
(49.9333°N, 19.5833°E)
Time: 03:58:17
(UTC+00:00)

SJ-6B - Pass Details

Date: 11 May 2021
Orbit: 509 x 580 km, 97.6° (Epoch: 22 June)

Event Time Altitude Azimuth Distance (km) Brightness Sun altitude
Rises 18:56:51 0° 186° (S) 2,677 6.0 -6.4°
Reaches altitude 10° 18:59:03 10° 195° (SSW) 1,803 5.2 -6.6°
Maximum altitude 19:02:41 37° 263° (W) 876 4.3 -7.1°
Drops below altitude 10° 19:06:26 10° 332° (NNW) 1,858 6.8 -7.5°
Sets 19:08:44 0° 340° (NNW) 2,772 7.6 -7.8°
